This is the latest recevied weather packets stored in our database for station/object KC2WGU. If no packets are shown the sender has not sent any weather packets the latest 10 day(s).
| Time | Temp. | Humidity | Pressure | Rain* | Wind** | Luminosity | Snow |
|---|---|---|---|---|---|---|---|
| 1788448220 | 23.89° C | 87% | 1012.7 hPa | 0 mm | - | 0 W/m² | - |
| 1788447019 | 23.33° C | 87% | 1012.5 hPa | 0 mm | - | 0 W/m² | - |
| 1788445820 | 22.78° C | 86% | 1012.4 hPa | 0 mm | - | 0 W/m² | - |
| 1788445220 | 23.33° C | 87% | 1012.4 hPa | 0 mm | - | 0 W/m² | - |
| 1788444620 | 22.78° C | 88% | 1012.4 hPa | 0 mm | - | 0 W/m² | - |
| 1788444020 | 22.22° C | 88% | 1012.3 hPa | 0 mm | - | 0 W/m² | - |
| 1788442820 | 21.67° C | 90% | 1012.4 hPa | 0 mm | - | 0 W/m² | - |
| 1788442220 | 21.67° C | 89% | 1012.4 hPa | 0 mm | - | 0 W/m² | - |
| 1788441619 | 21.67° C | 89% | 1012.4 hPa | 0 mm | - | 0 W/m² | - |
| 1788441020 | 21.67° C | 89% | 1012.2 hPa | 0 mm | - | 0 W/m² | - |
| 1788440420 | 21.67° C | 90% | 1012.2 hPa | 0 mm | - | 0 W/m² | - |
| 1788439820 | 21.67° C | 90% | 1012.7 hPa | 0 mm | - | 0 W/m² | - |
| 1788439219 | 21.67° C | 91% | 1012.7 hPa | 0 mm | - | 0 W/m² | - |
| 1788438621 | 21.11° C | 91% | 1012.6 hPa | 0 mm | - | 0 W/m² | - |
| 1788438020 | 21.11° C | 91% | 1012.4 hPa | 0 mm | - | 0 W/m² | - |
| 1788436821 | 20.56° C | 92% | 1012.4 hPa | 0 mm | - | 0 W/m² | - |
| 1788436221 | 20° C | 92% | 1012.5 hPa | 0 mm | - | 0 W/m² | - |
| 1788435621 | 20° C | 91% | 1012.5 hPa | 0 mm | - | 0 W/m² | - |
| 1788435020 | 20° C | 91% | 1012.4 hPa | 0 mm | - | 0 W/m² | - |
| 1788434421 | 20° C | 91% | 1012.4 hPa | 0 mm | - | 0 W/m² | - |
| 1788433820 | 20° C | 91% | 1012.6 hPa | 0 mm | - | 0 W/m² | - |
| 1788433221 | 20° C | 91% | 1012.6 hPa | 0 mm | - | 0 W/m² | - |
| 1788432622 | 20° C | 91% | 1012.7 hPa | 0 mm | - | 0 W/m² | - |
| 1788432020 | 20° C | 91% | 1012.6 hPa | 0 mm | - | 0 W/m² | - |
| 1788431421 | 20° C | 92% | 1012.5 hPa | 0 mm | - | 0 W/m² | - |
* Rain latest hour (hover to see other rain measurements)
** Current wind speed in m/s (hover to see current wind gust speed)